GFSSE_925_rhum_093.txt.gz
RH
85 90 88 79 91 84 79 76 77 89 95 98 99 97 95 96 96 95 92 91 90 90 83 85 89 91 91 91 89 90 92 90 88 93 91 88 81 80 72 63 77 86 97
80 94 88 80 89 90 86 81 82 87 93 97 99 95 97 96 95 87 87 88 88 88 88 86 87 85 84 89 92 93 92 86 86 84 79 57 51 69 84 85 88 83 75
88 99 96 79 88 88 91 71 73 90 92 98 99 96 96 94 92 89 86 85 85 86 85 86 88 86 80 76 86 92 89 87 79 66 48 80 90 85 91 96 98 93 90
96 99 99 82 88 89 91 73 76 89 90 91 93 95 97 95 94 92 86 84 84 83 83 88 90 90 89 86 82 60 53 54 49 80 86 92 95 91 98 96 98 92 97
99 98 97 82 88 88 90 82 84 87 87 88 88 87 90 96 97 95 86 86 88 86 88 90 93 94 91 86 92 87 69 70 83 81 84 94 92 93 98 97 97 96 96
100 99 91 86 88 86 88 89 90 89 86 84 84 85 87 92 98 97 83 86 82 89 92 95 95 94 86 88 91 87 89 82 83 95 94 88 85 95 95 93 91 92 85
100 97 92 84 85 86 86 88 87 84 82 82 79 77 84 94 98 84 61 52 74 94 95 96 94 91 88 80 84 88 88 86 91 87 90 88 82 84 91 92 89 90 91
100 90 96 84 87 87 88 84 84 83 81 81 80 77 88 87 97 83 65 50 79 90 95 95 93 89 81 82 82 86 86 85 83 79 79 86 89 90 92 92 92 91 92
98 83 87 90 87 87 88 85 83 89 80 79 79 78 88 86 91 87 73 57 80 83 87 90 82 83 78 75 78 78 74 71 70 69 77 84 90 90 92 92 92 92 92
99 91 84 88 91 93 89 86 84 81 79 76 78 79 84 87 88 92 80 75 58 64 74 83 81 77 74 72 76 77 74 74 71 70 74 84 93 90 93 91 91 92 92
98 93 88 89 92 89 90 91 86 80 79 80 81 76 82 83 94 93 87 81 67 61 64 71 77 75 74 73 74 76 75 75 72 70 75 75 88 91 91 91 91 92 92
99 99 99 95 92 90 91 92 89 85 84 85 82 80 81 76 86 93 94 89 87 70 67 68 66 71 73 73 74 77 76 75 75 72 71 75 87 91 90 90 93 93 93
96 100 99 97 99 99 98 93 91 88 86 83 79 74 78 82 74 89 97 97 92 87 78 63 65 64 69 73 74 74 72 73 76 75 70 72 83 90 86 87 91 92 93
92 95 95 94 99 100 100 94 89 86 80 74 68 73 86 88 79 83 89 92 88 81 77 71 64 61 67 67 70 72 72 71 73 73 71 68 74 88 84 89 92 91 93
94 87 84 93 94 97 99 95 89 84 79 72 66 77 84 83 78 81 85 89 89 86 83 77 70 68 57 64 67 67 69 71 71 70 70 69 68 72 83 87 93 90 92
91 86 89 88 90 94 97 98 91 86 80 76 73 68 75 74 73 76 80 83 82 80 81 79 76 70 64 57 60 64 65 67 69 67 65 66 65 67 73 88 91 90 90
82 88 96 91 90 94 99 96 95 89 84 80 73 69 67 74 77 71 74 77 76 78 81 81 80 75 71 64 55 60 69 72 69 67 67 64 64 67 66 74 89 90 90
66 74 73 76 92 91 95 96 98 94 88 84 79 76 72 70 74 76 74 69 69 75 77 78 80 80 74 68 62 54 67 72 73 70 64 61 60 62 64 66 72 88 91
63 64 69 75 98 90 93 97 98 99 93 88 86 81 79 79 79 72 64 64 68 74 77 77 80 77 74 68 64 60 58 67 74 75 73 64 59 59 60 62 67 74 81
60 60 61 66 80 79 100 99 100 100 98 90 90 89 82 83 81 82 73 70 73 74 76 77 75 73 74 70 72 73 72 71 72 71 72 71 64 58 60 63 66 70 75
70 68 72 63 79 75 99 100 100 100 100 99 88 91 86 85 83 83 83 80 78 80 71 71 69 72 76 78 82 80 69 66 68 68 72 74 72 66 60 58 62 64 66
86 91 62 59 60 63 72 93 99 100 89 93 87 83 86 86 84 84 83 83 82 78 76 72 72 72 76 76 81 83 72 70 66 64 65 68 66 66 62 59 55 57 65
70 75 79 64 54 54 59 62 86 97 98 96 92 87 79 80 81 81 80 80 81 83 77 71 70 70 76 73 74 74 78 74 75 61 58 55 55 57 58 56 56 57 61
38 50 89 64 60 72 91 90 91 97 97 83 69 86 76 74 79 81 84 78 73 80 80 75 71 71 72 82 79 78 74 71 75 79 64 59 59 56 56 57 57 57 56
28 29 42 84 82 67 91 96 92 95 89 83 84 81 77 75 73 70 68 72 77 79 81 79 76 78 78 78 74 77 80 82 82 80 85 76 74 71 68 65 60 59 58
33 30 34 74 86 83 92 95 98 92 91 90 86 86 92 91 91 84 80 79 77 77 77 77 79 83 81 79 78 79 76 80 90 90 90 86 83 84 82 78 75 74 69

GFSSE_925_rhum_099.txt.gz
RH
68 90 82 86 88 88 90 92 95 90 96 97 98 95 94 94 92 93 96 95 97 98 98 95 91 87 87 90 97 98 98 87 63 39 50 80 94 85 71 73 74 80 88
67 86 82 86 89 91 93 91 84 91 92 96 95 93 93 90 89 92 94 90 94 94 93 91 89 88 88 92 96 97 81 67 51 69 70 84 93 93 77 87 89 96 93
68 80 91 85 89 92 88 76 87 92 91 96 96 93 91 87 88 88 85 86 89 90 87 86 88 88 89 94 90 84 63 61 78 75 69 86 98 92 97 96 93 96 96
65 76 85 87 89 89 74 82 87 92 92 95 93 93 90 86 86 87 88 88 88 87 87 82 80 88 97 97 82 51 72 81 81 70 62 85 91 95 96 96 97 94 94
64 68 84 85 84 79 83 85 85 87 86 85 85 87 92 87 85 85 87 90 92 91 92 94 95 89 79 68 55 78 79 71 69 75 79 85 84 91 95 92 91 96 97
64 62 84 85 85 84 86 86 86 86 86 85 82 88 91 87 86 88 91 90 82 84 87 93 94 95 91 76 80 80 73 66 58 60 65 76 86 86 90 90 91 91 91
56 74 86 83 83 84 85 86 87 87 86 85 81 92 97 93 88 93 92 82 85 86 87 90 91 89 90 88 79 80 77 66 58 58 66 77 87 87 88 89 89 89 89
76 77 82 86 85 83 81 84 86 85 82 79 79 82 97 90 82 82 85 86 88 92 91 92 92 89 90 84 83 80 71 64 58 63 71 83 89 87 88 90 89 88 88
87 81 81 87 89 83 82 88 87 82 83 78 75 80 96 83 54 54 82 88 96 89 89 93 90 89 84 82 78 66 64 60 59 58 61 77 89 86 86 88 87 89 88
86 84 73 79 86 92 97 89 81 80 81 72 75 80 94 87 70 49 77 88 88 87 87 81 75 79 77 69 62 61 64 60 61 62 71 86 90 88 88 89 89 88 89
83 81 69 75 76 83 87 92 83 83 76 74 74 75 82 97 90 70 72 82 87 85 79 79 71 69 71 70 66 68 66 60 60 63 78 84 91 87 84 86 89 89 89
74 74 70 68 76 83 84 91 90 91 82 74 77 78 66 85 87 86 80 69 79 81 80 74 71 70 76 80 73 69 63 61 62 64 74 81 90 85 73 70 88 91 91
68 71 76 70 79 84 88 80 87 84 68 63 66 63 54 82 86 85 93 87 88 71 85 78 72 76 64 62 68 61 59 61 62 64 64 71 90 84 74 75 86 91 91
61 69 73 76 78 86 83 80 86 71 59 59 62 59 54 68 83 85 80 74 74 74 67 72 66 62 66 61 59 58 58 60 62 64 70 62 77 82 77 72 77 84 88
65 69 69 78 81 87 83 78 81 74 61 60 63 61 59 56 64 69 68 66 66 66 64 63 58 59 60 56 56 57 60 60 64 65 67 69 64 76 80 82 82 86 88
74 71 68 74 86 86 80 79 79 77 64 63 65 64 60 62 58 60 64 75 68 66 64 65 63 60 54 51 52 55 57 59 60 62 62 69 66 65 77 92 93 94 94
67 72 75 70 82 85 83 79 82 76 70 66 67 66 63 65 67 66 62 68 68 67 65 66 65 63 59 55 48 48 52 53 59 62 64 64 71 68 67 84 93 95 94
60 69 75 80 88 85 79 81 83 79 75 70 68 69 70 65 66 68 64 66 66 67 68 68 68 66 62 60 58 50 50 56 59 59 61 64 68 70 73 67 76 92 95
56 65 68 84 90 94 96 85 88 85 81 76 70 69 70 65 64 66 63 63 64 68 68 67 65 63 61 63 60 57 54 55 61 61 61 62 66 70 71 73 74 67 82
51 54 61 77 85 88 89 87 90 86 87 82 74 71 70 67 68 70 65 63 65 68 71 74 69 70 64 62 60 58 62 63 62 65 66 65 65 70 77 74 76 73 67
60 58 57 69 82 83 93 100 99 98 91 92 91 80 74 74 72 76 76 69 68 70 73 74 73 69 73 71 68 65 66 65 66 67 66 65 62 67 72 74 76 76 73
46 65 55 66 79 82 97 100 99 98 100 90 94 92 87 83 79 79 79 78 72 74 74 74 74 75 70 72 69 63 66 59 62 62 61 62 63 64 68 70 71 72 72
42 59 60 68 76 83 82 100 100 100 100 100 100 100 96 92 89 85 82 81 81 80 79 79 78 79 74 71 74 65 70 71 59 60 62 63 64 65 66 65 68 70 72
40 45 71 68 73 68 77 95 93 86 87 82 81 80 80 80 87 91 92 90 87 87 87 83 83 81 81 73 75 78 70 69 69 67 60 60 59 60 62 66 68 69 63
40 40 56 76 74 69 67 73 73 75 78 78 74 71 69 70 72 76 81 75 92 94 90 86 86 85 79 80 74 78 80 79 78 74 76 70 68 68 64 65 67 71 70
46 46 40 69 81 84 80 65 59 62 67 74 74 83 79 76 70 73 73 82 84 92 98 75 65 83 93 87 85 80 80 82 80 79 78 75 78 83 80 80 79 81 80

GFSSE_925_rhum_105.txt.gz
RH
85 84 81 88 88 85 94 99 96 97 93 93 93 93 94 92 93 94 94 92 94 90 92 88 91 96 99 95 69 71 86 94 92 81 83 90 88 94 93 82 86 96 98
84 85 86 87 87 87 92 91 91 94 92 90 91 89 94 96 97 98 96 97 90 89 89 86 91 96 100 79 68 76 94 90 88 84 93 93 91 96 97 95 98 100 100
94 86 87 87 86 89 86 88 87 94 92 85 89 86 91 96 97 94 98 97 92 90 87 87 96 96 81 67 72 83 79 88 94 91 93 94 92 95 98 89 96 96 97
94 90 88 87 87 89 84 87 88 93 92 86 86 87 87 92 91 87 96 94 92 89 88 87 87 80 60 78 79 84 88 88 87 81 81 87 88 92 97 96 96 94 89
97 92 89 84 87 85 88 92 89 90 89 86 84 85 82 76 78 76 86 90 90 92 92 94 80 58 84 82 80 83 84 81 80 76 76 77 88 89 92 94 93 92 90
94 94 87 87 88 81 87 87 85 85 84 90 81 82 86 82 80 78 83 87 82 83 89 86 56 83 81 75 69 69 77 72 68 63 63 86 88 88 90 90 91 90 89
88 89 85 88 81 79 84 86 85 84 86 87 82 86 86 91 86 85 82 78 87 87 85 80 74 81 76 65 63 64 64 63 57 46 74 86 88 88 88 89 90 90 88
85 88 86 86 77 82 85 87 83 84 85 87 84 88 89 93 91 85 80 84 94 94 87 86 76 76 73 64 60 62 61 62 40 46 67 82 88 89 90 91 89 90 90
80 84 88 78 80 85 88 87 83 83 86 92 79 80 89 87 87 79 81 85 90 89 86 90 74 73 70 62 60 63 67 65 57 43 57 76 85 85 88 91 89 90 90
80 80 83 85 86 87 89 87 84 81 88 95 84 56 74 82 87 88 88 82 83 84 87 81 76 76 59 58 59 62 67 65 61 40 49 71 87 87 88 89 92 91 92
92 78 86 88 87 87 88 87 84 85 88 89 90 64 56 80 87 88 93 85 78 85 87 78 73 58 53 63 64 65 70 66 64 48 50 68 88 88 90 92 91 91 90
95 87 87 90 89 84 90 89 87 88 89 84 90 81 53 65 85 90 93 84 75 72 73 70 62 55 52 64 64 64 69 66 65 51 55 64 79 87 87 93 92 93 94
89 91 87 92 85 87 94 89 87 79 73 76 78 88 82 71 84 84 90 84 75 73 67 64 61 61 56 61 64 65 67 65 64 62 53 60 73 80 75 74 88 93 92
85 81 81 89 89 91 90 88 79 73 74 76 78 92 87 85 83 74 67 73 68 67 65 64 71 72 73 67 63 60 64 66 66 66 66 56 62 68 70 70 67 79 90
85 83 77 82 83 89 84 84 77 71 77 70 61 87 90 77 74 76 54 49 51 59 56 56 64 66 68 66 63 60 61 64 67 67 68 68 60 63 69 68 75 79 88
80 82 78 78 82 86 82 79 74 69 78 65 59 64 81 73 71 73 69 73 58 68 69 66 66 65 60 60 58 59 59 62 66 66 68 68 69 63 67 79 85 84 87
70 73 82 83 84 85 80 78 64 74 70 59 62 65 67 68 70 71 74 76 71 68 68 65 64 60 57 56 54 56 56 58 59 62 63 64 67 71 67 74 87 87 88
74 74 74 78 82 84 81 72 66 65 61 61 64 62 63 64 72 72 73 76 74 69 68 68 67 65 63 58 53 50 51 54 56 60 63 64 66 70 72 69 75 83 90
64 66 72 72 71 75 78 76 74 66 66 62 65 64 61 63 63 65 65 68 69 71 68 68 68 68 66 65 63 59 54 51 54 60 62 64 64 66 70 73 74 72 79
64 65 71 76 73 74 87 80 77 68 70 67 68 68 63 67 68 67 66 67 70 70 70 70 70 70 68 66 64 64 61 58 56 52 57 62 64 66 68 70 74 77 76
64 63 65 68 77 80 82 93 88 75 72 67 70 70 69 68 66 68 68 66 67 69 70 70 70 69 68 67 67 66 62 58 58 61 57 61 66 67 67 69 71 76 78
69 64 66 72 71 72 72 84 91 84 84 73 76 74 72 71 67 66 67 65 64 65 68 70 72 73 71 71 69 74 83 71 66 64 66 67 67 67 68 68 71 76 77
60 68 68 70 74 73 75 73 77 78 93 89 91 86 81 75 73 68 68 71 66 66 69 73 76 77 74 74 71 69 90 86 80 67 65 66 67 67 67 69 72 75 77
61 66 70 71 77 84 79 77 79 88 99 100 97 93 92 90 90 87 84 79 79 70 68 70 73 76 77 76 76 73 70 74 87 85 67 68 69 68 69 70 71 71 72
68 68 68 70 82 92 90 82 94 99 99 100 100 100 100 98 90 98 100 95 94 95 82 83 82 82 81 80 78 76 75 78 80 84 92 73 66 66 68 69 69 68 68
78 74 72 74 77 80 88 94 89 88 83 81 90 90 87 88 88 91 100 100 95 96 99 99 90 89 88 90 91 86 84 84 89 91 96 87 78 74 67 66 65 67 72

GFSSE_925_rhum_108.txt.gz
RH
84 89 84 86 90 94 98 97 90 94 95 95 95 96 89 89 92 95 93 90 91 91 89 92 95 94 75 94 96 97 97 97 96 90 86 85 94 97 97 93 93 96 98
88 88 86 87 88 93 98 96 94 90 90 92 93 94 93 94 95 98 96 95 89 88 90 94 98 80 90 98 99 97 97 93 91 90 92 95 92 95 96 93 95 96 100
88 89 89 88 89 90 91 94 95 91 87 86 91 95 98 99 100 98 96 88 91 87 91 95 96 85 94 91 92 97 96 90 91 90 90 90 91 98 99 92 91 97 94
92 91 91 89 90 89 89 88 95 90 88 84 86 95 97 98 99 99 96 93 89 90 96 96 89 95 94 93 85 89 98 85 81 83 87 87 90 92 95 94 93 94 89
93 92 90 88 90 86 88 94 94 87 82 81 82 89 92 97 98 98 97 92 87 86 85 94 78 83 88 92 90 89 84 80 79 64 74 88 91 91 93 94 92 91 91
93 92 90 89 87 88 91 89 88 86 91 86 82 80 79 85 84 86 87 90 85 90 92 76 86 85 82 81 83 76 74 72 67 52 73 86 89 89 90 90 90 89 90
95 93 89 89 85 88 88 87 86 86 90 91 84 80 75 75 79 89 93 73 84 82 81 93 81 71 70 73 75 68 66 52 42 61 80 88 89 88 89 89 88 88 88
86 92 90 90 83 87 88 84 84 87 82 84 85 91 87 81 86 94 86 79 62 85 94 95 76 66 66 64 64 63 51 32 42 57 77 90 91 90 89 90 90 90 88
83 93 93 84 84 87 87 83 84 86 81 85 86 87 92 82 83 87 87 90 83 67 93 79 74 66 63 65 64 67 57 37 38 55 74 85 90 89 90 90 90 90 89
92 90 91 82 89 90 88 83 85 89 84 80 86 88 82 86 74 85 90 87 81 83 71 73 72 65 62 63 64 65 65 52 40 47 65 84 90 90 92 92 91 90 91
97 89 86 86 92 91 90 82 85 93 87 66 61 83 87 81 84 82 80 82 86 86 71 69 69 60 59 64 69 68 67 61 45 46 55 75 89 90 91 92 92 92 93
98 90 83 89 91 92 91 87 89 96 93 72 52 76 88 89 90 91 83 80 87 84 74 71 55 57 63 66 69 66 67 66 53 51 53 62 83 90 87 92 95 94 94
97 100 92 94 91 92 92 90 94 96 93 85 59 61 86 90 93 95 91 83 87 81 72 60 53 57 66 66 69 69 67 67 62 55 54 55 68 74 68 82 91 94 94
98 100 98 92 93 91 90 91 95 92 88 89 79 53 71 85 92 90 82 77 70 65 60 59 56 54 63 66 66 67 67 67 67 66 62 56 57 60 68 74 82 86 93
96 99 85 92 91 92 90 89 91 87 81 79 89 78 64 72 74 76 74 66 65 62 60 66 72 71 70 66 65 65 67 68 68 68 68 67 61 60 63 72 79 90 94
93 98 100 88 87 93 90 86 80 75 73 78 88 84 82 73 70 64 54 60 59 55 58 64 67 68 68 66 62 64 64 65 68 69 68 69 68 65 64 72 80 86 97
77 99 92 90 89 92 85 80 76 72 74 80 78 90 88 75 71 65 52 48 45 57 60 65 68 67 64 62 60 59 60 61 64 66 66 67 67 70 70 77 91 95 97
88 93 98 95 98 90 82 80 77 69 76 72 65 69 79 77 74 74 64 72 67 67 69 69 69 64 61 58 56 54 57 57 60 61 63 65 66 69 72 73 81 88 97
85 90 96 99 98 87 84 78 79 75 77 70 63 66 74 76 71 73 72 71 73 73 72 70 70 67 66 63 58 57 52 51 54 57 62 65 66 67 70 72 74 79 84
75 83 80 77 86 86 80 79 78 75 70 64 64 63 67 68 69 67 72 72 73 73 73 72 70 69 69 68 66 65 62 58 53 53 58 62 64 66 68 70 74 76 79
64 68 73 72 71 94 92 96 87 73 69 66 65 64 63 65 68 68 66 71 73 72 72 71 71 72 72 69 69 69 67 65 62 58 56 54 62 64 66 68 71 74 77
71 67 70 68 71 78 81 96 85 84 78 70 72 68 66 63 67 68 68 68 69 70 71 72 72 72 71 71 70 76 84 70 65 59 58 63 60 65 70 70 70 72 74
69 70 65 69 69 97 99 100 97 80 95 84 80 77 75 72 68 68 67 68 68 69 70 70 70 71 72 73 74 66 90 89 82 69 67 67 69 70 70 70 72 74 75
62 65 68 67 66 71 90 87 97 98 98 97 96 91 82 82 76 70 69 69 69 67 67 67 69 74 77 75 77 75 70 77 87 82 71 69 70 70 70 70 72 72 75
66 66 72 75 78 96 82 93 86 73 78 83 89 100 93 96 92 83 78 80 82 83 77 77 84 85 81 79 76 75 76 80 82 86 91 79 71 73 73 74 76 76 76
73 70 69 72 74 76 88 97 93 97 99 100 99 100 100 99 96 99 92 86 96 95 99 93 89 95 94 93 89 87 86 84 89 93 97 89 77 70 67 72 72 71 79